Weather History for University AP, Davis, CA, CA

Change the Weather History Date:

Wednesday, January 8, 2014

  Actual Average (KSAC) Record (KSAC)
Temperature  
Mean Temperature 46 °F -  
Max Temperature 57 °F 52 °F 69 °F (1990)
Min Temperature 35 °F 38 °F 28 °F (2007)
Degree Days  
Heating Degree Days 19    
Cooling Degree Days 0    
Moisture  
Dew Point 36 °F    
Average Humidity 73    
Maximum Humidity 100    
Minimum Humidity 55    
Precipitation  
Precipitation 0.00 in 0.12 in 1.08 in (2001)
Month to date precipitation 0.91  
Year to date precipitation 0.91  
Since 1 July precipitation 7.53  
Sea Level Pressure  
Sea Level Pressure 30.18 in    
Wind  
Wind Speed 0 mph (North)    
Max Wind Speed 6 mph    
Max Gust Speed -    
Visibility 9 miles    
Events      
T = Trace of Precipitation, MM = Missing Value Source: NWS Daily Summary

Daily Weather History Graph

Daily Weather History Graph

Search for Another Location

Airport:

Trip Planner

Search our weather history database for the weather conditions in past years. The results will help you decide how hot, cold, wet, or windy it might be!

Date:

Astronomy

Jan. 08, 2014 Rise Set
Actual Time 7:24 AM PST 5:03 PM PST
Civil Twilight 6:55 AM PST 5:32 PM PST
Nautical Twilight 6:22 AM PST 6:05 PM PST
Astronomical Twilight 5:50 AM PST 6:37 PM PST
Moon 11:56 AM PST (1/8) 12:38 AM PST (1/8)
Length of Visible Light 10h 37m
Length of Day
9h 38m
First Quarter, 57% of the Moon is Illuminated
Jan 8
First Quarter
Jan 15
Full
Jan 23
Last Quarter
Jan 30
New
Feb 6
First Quarter

Hourly Weather History & Observations

Time (PST) Temp. Windchill Dew Point Humidity Pressure Visibility Wind Dir Wind Speed Gust Speed Precip Events Conditions
12:00 AM 39.2 °F - 30.2 °F 70% 30.17 in 10.0 mi Calm Calm - N/A   Clear
12:20 AM 37.4 °F - 28.4 °F 70% 30.16 in 10.0 mi Calm Calm - N/A   Clear
12:40 AM 37.4 °F - 28.4 °F 70% 30.15 in 10.0 mi Calm Calm - N/A   Clear
1:00 AM 37.4 °F - 28.4 °F 70% 30.15 in 10.0 mi Calm Calm - N/A   Clear
1:20 AM 35.6 °F - 26.6 °F 70% 30.15 in 10.0 mi Calm Calm - N/A   Clear
1:40 AM 37.4 °F - 26.6 °F 65% 30.15 in 10.0 mi Calm Calm - N/A   Clear
2:00 AM 35.6 °F - 26.6 °F 70% 30.15 in 10.0 mi Calm Calm - N/A   Clear
2:20 AM 37.4 °F - 26.6 °F 65% 30.16 in 10.0 mi Calm Calm - N/A   Clear
2:40 AM 37.4 °F - 26.6 °F 65% 30.16 in 10.0 mi Calm Calm - N/A   Clear
3:00 AM 37.4 °F - 24.8 °F 60% 30.16 in 10.0 mi Calm Calm - N/A   Clear
3:20 AM 35.6 °F - 24.8 °F 65% 30.16 in 10.0 mi Calm Calm - N/A   Clear
3:40 AM 37.4 °F - 24.8 °F 60% 30.16 in 10.0 mi Calm Calm - N/A   Clear
4:00 AM 35.6 °F - 24.8 °F 65% 30.16 in 10.0 mi Calm Calm - N/A   Clear
4:20 AM 35.6 °F - 24.8 °F 65% 30.16 in 10.0 mi Calm Calm - N/A   Clear
4:40 AM 37.4 °F - 26.6 °F 65% 30.16 in 10.0 mi Calm Calm - N/A   Clear
5:00 AM 39.2 °F - 26.6 °F 61% 30.16 in 10.0 mi Calm Calm - N/A   Clear
5:20 AM 39.2 °F - 26.6 °F 61% 30.17 in 10.0 mi Calm Calm - N/A   Clear
5:40 AM 39.2 °F - 26.6 °F 61% 30.17 in 10.0 mi Calm Calm - N/A   Clear
6:00 AM 37.4 °F - 26.6 °F 65% 30.19 in 10.0 mi Calm Calm - N/A   Clear
6:20 AM 37.4 °F - 26.6 °F 65% 30.20 in 10.0 mi Calm Calm - N/A   Clear
6:40 AM 37.4 °F - 26.6 °F 65% 30.20 in 10.0 mi Calm Calm - N/A   Clear
7:00 AM 35.6 °F - 28.4 °F 75% 30.20 in 10.0 mi Calm Calm - N/A   Mostly Cloudy
7:20 AM 35.6 °F - 28.4 °F 75% 30.19 in 10.0 mi Calm Calm - N/A   Overcast
7:40 AM 37.4 °F - 30.2 °F 75% 30.19 in 10.0 mi Calm Calm - N/A   Overcast
8:00 AM 37.4 °F 34.9 °F 35.6 °F 93% 30.19 in 3.0 mi WNW 3.5 mph - N/A   Overcast
8:20 AM 39.2 °F - 37.4 °F 93% 30.20 in 3.0 mi Calm Calm - N/A   Overcast
8:40 AM 39.2 °F - 37.4 °F 93% 30.19 in 5.0 mi Calm Calm - N/A   Overcast
9:00 AM 41.0 °F - 37.4 °F 87% 30.21 in 5.0 mi Calm Calm - N/A   Overcast
9:20 AM 42.8 °F - 39.2 °F 87% 30.23 in 5.0 mi Calm Calm - N/A   Overcast
9:40 AM 44.6 °F - 41.0 °F 87% 30.22 in 7.0 mi Calm Calm - N/A   Overcast
10:00 AM 46.4 °F - 41.0 °F 81% 30.23 in 6.0 mi Calm Calm - N/A   Overcast
10:20 AM 46.4 °F - 42.8 °F 87% 30.24 in 6.0 mi Calm Calm - N/A   Overcast
10:40 AM 48.2 °F - 44.6 °F 87% 30.23 in 7.0 mi Calm Calm - N/A   Overcast
11:00 AM 48.2 °F - 44.6 °F 87% 30.23 in 7.0 mi Calm Calm - N/A   Mostly Cloudy
11:20 AM 50.0 °F - 44.6 °F 82% 30.22 in 8.0 mi Calm Calm - N/A   Clear
11:40 AM 51.8 °F - 44.6 °F 76% 30.21 in 9.0 mi Calm Calm - N/A   Clear
12:00 PM 53.6 °F - 44.6 °F 72% 30.19 in 10.0 mi Calm Calm - N/A   Clear
12:20 PM 53.6 °F - 44.6 °F 72% 30.18 in 10.0 mi Calm Calm - N/A   Clear
12:40 PM 53.6 °F - 44.6 °F 72% 30.18 in 10.0 mi North 5.8 mph - N/A   Clear
1:00 PM 53.6 °F - 44.6 °F 72% 30.17 in 10.0 mi Calm Calm - N/A   Clear
1:20 PM 55.4 °F - 42.8 °F 63% 30.16 in 10.0 mi North 5.8 mph - N/A   Clear
1:40 PM 55.4 °F - 41.0 °F 58% 30.15 in 10.0 mi North 3.5 mph - N/A   Clear
2:00 PM 55.4 °F - 41.0 °F 58% 30.15 in 10.0 mi North 5.8 mph - N/A   Clear
2:20 PM 55.4 °F - 41.0 °F 58% 30.15 in 10.0 mi Calm Calm - N/A   Clear
2:40 PM 55.4 °F - 41.0 °F 58% 30.15 in 10.0 mi Calm Calm - N/A   Clear
3:00 PM 55.4 °F - 41.0 °F 58% 30.14 in 10.0 mi Calm Calm - N/A   Clear
3:20 PM 55.4 °F - 41.0 °F 58% 30.15 in 10.0 mi Calm Calm - N/A   Clear
3:40 PM 55.4 °F - 41.0 °F 58% 30.15 in 10.0 mi Calm Calm - N/A   Clear
4:00 PM 57.2 °F - 41.0 °F 55% 30.16 in 10.0 mi Calm Calm - N/A   Clear
4:20 PM 55.4 °F - 41.0 °F 58% 30.15 in 10.0 mi Calm Calm - N/A   Clear
4:40 PM 55.4 °F - 41.0 °F 58% 30.16 in 10.0 mi Calm Calm - N/A   Clear
5:00 PM 55.4 °F - 41.0 °F 58% 30.16 in 10.0 mi Calm Calm - N/A   Clear
5:20 PM 53.6 °F - 39.2 °F 58% 30.16 in 10.0 mi Calm Calm - N/A   Clear
5:40 PM 51.8 °F - 41.0 °F 67% 30.16 in 10.0 mi Calm Calm - N/A   Clear
6:00 PM 51.8 °F - 41.0 °F 67% 30.17 in 10.0 mi Calm Calm - N/A   Clear
6:20 PM 48.2 °F - 39.2 °F 71% 30.16 in 10.0 mi Calm Calm - N/A   Clear
6:40 PM 48.2 °F - 41.0 °F 76% 30.16 in 10.0 mi Calm Calm - N/A   Clear
7:00 PM 48.2 °F - 41.0 °F 76% 30.17 in 10.0 mi Calm Calm - N/A   Clear
7:20 PM 46.4 °F - 41.0 °F 81% 30.18 in 10.0 mi Calm Calm - N/A   Clear
7:40 PM 46.4 °F - 41.0 °F 81% 30.19 in 10.0 mi Calm Calm - N/A   Clear
8:00 PM 46.4 °F - 41.0 °F 81% 30.19 in 10.0 mi Calm Calm - N/A   Clear
8:20 PM 46.4 °F - 41.0 °F 81% 30.20 in 10.0 mi Calm Calm - N/A   Clear
8:40 PM 44.6 °F - 37.4 °F 76% 30.19 in 9.0 mi Calm Calm - N/A   Clear
9:00 PM 44.6 °F - 39.2 °F 81% 30.19 in 9.0 mi Calm Calm - N/A   Clear
9:20 PM 44.6 °F - 41.0 °F 87% 30.19 in 8.0 mi Calm Calm - N/A   Clear
9:40 PM 44.6 °F - 41.0 °F 87% 30.19 in 8.0 mi Calm Calm - N/A   Clear
10:00 PM 44.6 °F - 41.0 °F 87% 30.18 in 9.0 mi Calm Calm - N/A   Clear
10:20 PM 42.8 °F - 41.0 °F 93% 30.17 in 8.0 mi Calm Calm - N/A   Clear
10:40 PM 41.0 °F - 39.2 °F 93% 30.18 in 8.0 mi Calm Calm - N/A   Clear
11:00 PM 41.0 °F - 39.2 °F 93% 30.19 in 8.0 mi Calm Calm - N/A   Clear
11:20 PM 39.2 °F - 39.2 °F 100% 30.18 in 8.0 mi Calm Calm - N/A   Clear
11:40 PM 39.2 °F - 37.4 °F 93% 30.19 in 9.0 mi Calm Calm - N/A   Clear